Misión y Visión

La misión es proporcionar información fiable a la navegación aérea, contribuyendo a la seguridad, regularidad y eficiencia de la Navegación Aérea Internacional

La visión es contribuir sustancialmente al desarrollo de conocimientos y a la utilización de la meteorología aeronáutica a nivel nacional e internacional, mediante la innovación y la coparticipación con sectores sociales y productivos de la sociedad.

 
  Inicio
  Metar
  Taf
  Wintemp
  SIGMET
  Avisos
  Pronósticos
  Carpeta Meteorologica
  Imágenes Satelitales
  Climatología Aeronáutica
   
  ¿Quienes Somos?
  Contacto
  Eventos
Taf

 

IMÁGENES DEL AEROPUERTO
(EN CONSTRUCCION)

 

PRONOSTICO DE AERÓDROMO
TAF / PROYECCION CLIMATICA
MES DE JULIO

 

AEROPUERTO ENRIQUE MALEK:

TAF MPSM 241700Z 2418/2524 22008KT 9999 SCT018 SCT100 PROB30 TEMPO 2420/2424 7000 -TSRA SCT018CB BKN090 TEMPO 2509/2513 00000KT=


TAF:

TAF MPDA 241700Z 2418/2506 25008KT 9999 SCT018 SCT090 PROB30 TEMPO 2420/2424 6000 TSRA SCT016CB BKN090 TEMPO 2501/2505 00000KT=

 

AEROPUERTO PANAMA PACIFICO:

hola



TAF:



AEROPUERTO MARCOS A. GELABERT:

TAF MPMG 241700Z 2418/2506 29008KT 9999 SCT018 SCT100 PROB30 TEMPO 2420/2424 7000 -TSRA SCT016CB BKN090=



TAF:



AEROPUERTO INTL. DE TOCUMEN:

TAF MPPA 241700Z 2418/2524 24008KT 9999 SCT018 SCT100 PROB30 TEMPO 2420/2424 6000 -TSRA SCT017CB BKN090 TEMPO 2508/2512 00000KT =



TAF:

TAF MPTO 241700Z 2418/2524 18006KT 9999 SCT018 SCT100 PROB30 TEMPO 2419/2423 6000 -TSRA SCT017CB BKN090 TEMPO 2505/2509 00000=


 
 



























  Noticias AAC
  Directorio
  Contáctenos
  Historia
  Quejas y Sugerencias
  Etica y Transparencia

  Gestión SSP/SMS
  Seguridad Aérea
  Navegación Aérea
  Transporte Aéreo

  Tramites
  Áeronaves de Alquiler

  Meteorología
  I.S.F.P.A
  Notam
  Peligro Aviario
  AVSEC
  UPIA
  Permisos
 




DECLARACIÓN DE PRIVACIDAD